This demonstration page uses our WeatherBlox Daily Observations layout. Learn more.

Left ArrowRight Arrow

Hourly Observations for May 29, 2015

Temp ( °F °C ) Dew Point ( °F °C ) Humidity (%) Winds ( mph kmh ) Pressure ( in mb ) Visibility ( mi km ) Precip ( " mm )
12:53 am 00:53 Mostly Clear 67 19.4 63 17.2 87 87 ENE 3 6 30.15 1021 10 16 0.00 0.00
1:53 am 01:53 Partly Cloudy 65 18.3 64 17.8 97 97 Calm 30.13 1020 8 13 0.00 0.00
2:53 am 02:53 Cloudy 67 19.4 65 18.3 93 93 Calm 30.12 1020 10 16 0.00 0.00
3:53 am 03:53 Cloudy with Light Rain 68 20 67 19.4 96 96 SW 5 7 30.14 1021 3 5 0.03 0.76
4:05 am 04:05 Cloudy with Rain 69 20.6 67 19.4 93 93 VRB 3 6 30.12 1020 3 5 0.05 1.27
4:19 am 04:19 Cloudy with Rain 69 20.6 67 19.4 93 93 VRB 3 6 30.12 1020 3 4 0.11 2.79
4:26 am 04:26 Cloudy with Light Rain 69 20.6 67 19.4 93 93 Calm 30.12 1020 5 8 0.12 3.05
4:47 am 04:47 Cloudy with Heavy Rain 68 20 66 19 94 94 SSW 6 9 30.12 1020 2 3 0.22 5.59
4:51 am 04:51 Cloudy with Heavy Rain 68 20 66 19 94 94 VRB 3 6 30.12 1020 1 1 0.33 8.38
4:53 am 04:53 Cloudy with Heavy Rain 68 20 66 18.9 93 93 VRB 5 7 30.14 1021 1 1 0.39 9.91
5:04 am 05:04 Cloudy with Rain 68 20 67 19.4 96 96 W 3 6 30.12 1020 2 3 0.07 1.78
5:06 am 05:06 Cloudy with Light Rain 68 20 67 19.4 96 96 WSW 3 6 30.12 1020 3 5 0.08 2.03
5:18 am 05:18 Cloudy with Light Rain 68 20 67 19.4 96 96 Calm 30.12 1020 2 3 0.14 3.56
5:27 am 05:27 Cloudy with Light Rain 68 20 67 19.4 96 96 SSE 3 6 30.12 1020 7 11 0.15 3.81
5:53 am 05:53 Cloudy 68 20 67 19.4 96 96 Calm 30.13 1020 10 16 0.18 4.57
6:34 am 06:34 Sunny with Mist and Fog 66 18.9 65 18.3 96 96 Calm 30.12 1020 2 3 0.00 0.00
6:41 am 06:41 Sunny with Mist and Fog 65 18.3 64 17.8 97 97 Calm 30.12 1020 1 2 0.00 0.00
6:46 am 06:46 Sunny with Mist and Fog 65 18.3 65 18.3 100 100 Calm 30.12 1020 2 3 0.00 0.00
6:53 am 06:53 Sunny with Mist and Fog 65 18.3 65 18.3 100 100 Calm 30.14 1021 2 3 0.00 0.00
6:55 am 06:55 Sunny with Mist and Fog 65 18.3 65 18.3 100 100 Calm 30.12 1020 2 2 0.00 0.00
7:04 am 07:04 Sunny with Fog 66 18.9 65 18.3 96 96 Calm 30.12 1020 1 1 0.00 0.00
7:09 am 07:09 Sunny with Mist and Fog 67 19.4 66 18.9 97 97 Calm 30.12 1020 2 3 0.00 0.00
7:11 am 07:11 Sunny with Mist and Fog 67 19.4 66 18.9 97 97 Calm 30.12 1020 3 5 0.00 0.00
7:53 am 07:53 Mostly Sunny 70 21.1 68 20 93 93 E 5 7 30.15 1021 8 13 0.00 0.00
8:53 am 08:53 Sunny 73 22.8 68 20 84 84 VRB 6 9 30.14 1021 10 16 0.00 0.00
9:40 am 09:40 Mostly Cloudy 74 23.3 68 20 82 82 SSW 8 13 30.12 1020 10 16 0.00 0.00
9:51 am 09:51 Partly Cloudy 73 23 68 20 83 83 VRB 6 9 30.12 1020 10 16 0.00 0.00
9:53 am 09:53 Partly Cloudy 74 23.3 68 20 82 82 Calm 30.15 1021 10 16 0.00 0.00
10:43 am 10:43 Mostly Cloudy 75 23.9 67 19.4 76 76 VRB 5 7 30.15 1021 10 16 0.00 0.00
10:53 am 10:53 Partly Cloudy 75 23.9 68 20 79 79 S 3 6 30.16 1021 10 16 0.00 0.00
11:26 am 11:26 Mostly Cloudy 78 25.6 69 20.6 74 74 undefined N/A 30.15 1021 10 16 0.00 0.00
11:53 am 11:53 Partly Cloudy 77 25 67 19.4 71 71 VRB 7 11 30.16 1021 10 16 0.00 0.00
12:53 pm 12:53 Mostly Cloudy 78 25.6 67 19.4 69 69 SSW 9 15 30.17 1022 10 16 0.00 0.00
1:53 pm 13:53 Partly Cloudy 80 26.7 67 19.4 64 64 S 8 13 30.14 1021 10 16 0.00 0.00
2:53 pm 14:53 Partly Cloudy 83 28.3 67 19.4 59 59 VRB 7 11 30.11 1020 10 16 0.00 0.00
3:53 pm 15:53 Partly Cloudy 85 29.4 66 18.9 53 53 SSW 8 13 30.08 1019 10 16 0.00 0.00
4:53 pm 16:53 Partly Cloudy 84 28.9 66 18.9 55 55 VRB 6 9 30.06 1018 10 16 0.00 0.00
5:53 pm 17:53 Mostly Sunny 84 28.9 66 18.9 55 55 S 9 15 30.05 1018 10 16 0.00 0.00
6:53 pm 18:53 Sunny 82 27.8 64 17.8 55 55 SSW 6 9 30.04 1017 10 16 0.00 0.00
7:53 pm 19:53 Mostly Sunny 82 27.8 64 17.8 55 55 SW 7 11 30.04 1017 10 16 0.00 0.00
8:53 pm 20:53 Mostly Cloudy 79 26.1 66 18.9 65 65 VRB 3 6 30.04 1017 10 16 0.00 0.00
9:14 pm 21:14 Cloudy with Heavy Rain 74 23.3 69 20.6 85 85 SW 6 9 30.06 1018 2 3 0.07 1.78
9:18 pm 21:18 Cloudy with Rain 73 22.8 69 20.6 87 87 Calm 30.06 1018 3 5 0.07 1.78
9:53 pm 21:53 Mostly Clear 72 22.2 70 21.1 94 94 Calm 30.05 1018 10 16 0.07 1.78
10:53 pm 22:53 Clear 72 22.2 69 20.6 91 91 Calm 30.07 1018 10 16 0.00 0.00
11:53 pm 23:53 Clear 73 22.8 68 20 84 84 Calm 30.06 1018 10 16 0.00 0.00

Powered by AerisWeather